[[{"header":{"parameterUnit":"m.s-1","parameterCategory":1,"la1":30.2991,"la2":30.254,"lo1":-89.0895,"lo2":-89.0444,"dy":0.0017,"dx":0.0017,"nx":28,"ny":28,"refTime":"2025-09-14T03:00:00:Z","depth":0,"parameterNumber":2,"parameterNumberName":"U-component_of_WINDS"},"data":[0,0,0,0,0,0,0,0,0,0,0,0,0,0,0,0,0,0,0,0,0,0,0,0,0,0,0,0,0,0,0,0,0,0,0,0,0,0,0,0,0,0,0,0,0,0,0,0,0,0,0,0,0,0,0,0,0,0,-2.6367,-2.6367,0,-2.6357,-2.6356,-2.6356,-2.6283,-2.6281,-2.628,-2.6278,-2.627,-2.6272,-2.6273,0,0,0,0,0,0,0,0,0,0,0,0,0,-2.6328,-2.6329,-2.6367,-2.6367,-2.6367,-2.6357,-2.6356,-2.6356,-2.6284,-2.6281,-2.6279,-2.6277,-2.627,-2.6271,-2.6273,0,0,0,0,0,0,0,0,0,0,0,0,0,-2.6334,-2.6329,-2.6367,-2.6329,-2.6326,-2.6357,-2.6356,-2.6356,-2.6284,-2.6281,-2.6279,-2.6276,-2.6269,-2.6271,-2.6273,-2.6341,0,0,-2.628,-2.6281,0,0,0,0,0,0,0,0,-2.6334,-2.6336,-2.6335,-2.6332,-2.6328,-2.6318,-2.634,-2.6351,-2.6285,-2.63,-2.6278,-2.6275,-2.6289,-2.6289,-2.6293,-2.6341,-2.634,-2.628,-2.6282,-2.6283,-2.6283,0,0,0,0,0,0,0,-2.6333,-2.6336,-2.6363,-2.6335,-2.6331,-2.6314,-2.6312,-2.6342,-2.631,-2.6298,-2.6293,-2.6293,-2.6286,-2.6291,-2.6292,-2.634,-2.628,-2.6282,-2.6284,-2.6284,-2.6445,-2.6448,0,0,0,0,0,0,-2.6338,-2.6336,-2.6363,-2.6363,-2.6324,-2.6317,-2.6315,-2.6324,-2.6309,-2.6304,-2.6295,-2.6289,-2.6289,-2.629,-2.6292,-2.6371,-2.6283,-2.6285,-2.6286,-2.6443,-2.6446,-2.6449,0,0,0,0,0,0,-2.6337,-2.6341,-2.6364,-2.6348,-2.6349,-2.632,-2.6332,-2.6325,-2.633,-2.6306,-2.6301,-2.6306,-2.6287,-2.6289,-2.633,-2.637,-2.6286,-2.6288,-2.6439,-2.6444,-2.6448,-2.653,0,0,0,0,0,0,-2.6336,-2.6341,-2.6365,-2.6349,-2.635,-2.64,-2.6334,-2.6327,-2.6334,-2.6326,-2.6315,-2.631,-2.6285,-2.6327,-2.6332,-2.6371,-2.6289,-2.6435,-2.6441,-2.6446,-2.6523,-2.6537,-2.6548,0,0,0,0,0,-2.6335,-2.6389,-2.6367,-2.6371,-2.638,-2.6403,-2.6404,-2.6372,-2.6337,-2.6362,-2.6348,-2.6311,-2.6365,-2.6332,-2.6337,-2.6378,-2.6433,-2.6439,-2.6446,-2.6518,-2.6534,-2.6548,0,0,0,0,0,0,-2.6411,-2.6386,-2.6361,-2.6411,-2.641,-2.639,-2.642,-2.639,-2.6399,-2.6392,-2.6353,-2.6352,-2.6399,-2.6392,-2.6356,-2.6444,-2.6393,-2.6401,-2.6446,-2.6461,-2.6473,-2.6473,-2.6291,0,0,0,0,0,-2.6434,-2.6453,-2.6431,-2.6477,-2.6477,-2.645,-2.6458,-2.6434,-2.6432,-2.6431,-2.6419,-2.6419,-2.6436,-2.6448,-2.6462,-2.6523,-2.652,-2.6554,-2.6566,-2.6576,-2.6583,-2.6617,-2.6632,-2.6471,-2.6471,-2.6471,0,0,-2.648,-2.6469,-2.6483,-2.6492,-2.6488,-2.6511,-2.6449,-2.6475,-2.6492,-2.6435,-2.6473,-2.6465,-2.6463,-2.6514,-2.6536,-2.651,-2.6627,-2.6584,-2.6593,-2.6594,-2.6625,-2.664,-2.6654,-2.6476,-2.6475,-2.6474,0,0,-2.6576,-2.6569,-2.6608,-2.6606,-2.6601,-2.6582,-2.6592,-2.6578,-2.657,-2.6608,-2.6566,-2.6587,-2.6616,-2.6617,-2.6621,-2.6721,-2.6689,-2.6727,-2.6791,-2.6824,-2.6837,-2.6848,-2.6885,-2.6898,-2.6735,-2.6735,-2.6735,0,-2.6635,-2.6666,-2.6631,-2.6661,-2.6667,-2.6616,-2.6656,-2.6656,-2.6657,-2.6662,-2.6633,-2.6671,-2.6666,-2.6718,-2.6742,-2.6747,-2.6758,-2.6728,-2.6837,-2.6848,-2.6858,-2.6893,-2.6907,-2.674,-2.6739,-2.6739,-2.6738,0,-2.6739,-2.6762,-2.6794,-2.6796,-2.6805,-2.684,-2.6812,-2.6826,-2.6802,-2.6788,-2.6828,-2.6821,-2.6833,-2.6844,-2.6821,-2.6894,-2.6878,-2.6844,-2.6792,-2.6879,-2.6911,-2.6924,-2.6747,-2.6745,-2.6743,-2.6742,0,0,-2.6881,-2.6865,-2.6877,-2.6878,-2.687,-2.6888,-2.6922,-2.6934,-2.6948,-2.6951,-2.6979,-2.7007,-2.6976,-2.6981,-2.6958,-2.6987,-2.7069,-2.6949,-2.6949,-2.6973,-2.7151,-2.7177,-2.7192,-2.7048,-2.705,-2.7052,-2.7151,0,-2.6974,-2.7029,-2.7,-2.7059,-2.7081,-2.7035,-2.7065,-2.7065,-2.7053,-2.7071,-2.7058,-2.7079,-2.7036,-2.7039,-2.7066,-2.7053,-2.7104,-2.7046,-2.7075,-2.7077,-2.7077,-2.7209,-2.7236,-2.733,-2.7164,-2.7166,-2.7167,0,-2.7089,-2.7097,-2.7159,-2.7149,-2.7158,-2.7184,-2.7195,-2.7212,-2.7212,-2.7201,-2.7209,-2.7179,-2.7214,-2.7163,-2.7211,-2.7172,-2.7183,-2.7179,-2.7182,-2.7183,-2.7127,-2.7215,-2.7359,-2.7373,-2.7186,-2.7185,-2.7184,0,-2.7188,-2.7214,-2.7255,-2.7257,-2.7247,-2.7267,-2.7264,-2.7261,-2.7271,-2.7281,-2.7287,-2.7301,-2.7309,-2.7321,-2.7298,-2.7263,-2.735,-2.7297,-2.7343,-2.7344,-2.7363,-2.7362,-2.7512,-2.737,-2.737,-2.737,-2.7369,0,-2.7295,-2.7334,-2.7299,-2.7324,-2.7368,-2.7336,-2.7381,-2.7373,-2.7372,-2.7396,-2.7357,-2.7381,-2.7349,-2.737,-2.7352,-2.7396,-2.7399,-2.7393,-2.7388,-2.7396,-2.7397,-2.7403,-2.7396,-2.7373,-2.7373,-2.7372,-2.7371,0,-2.7411,-2.7389,-2.7431,-2.7418,-2.7416,-2.7449,-2.7439,-2.7463,-2.7449,-2.7481,-2.7486,-2.7465,-2.7489,-2.7467,-2.7489,-2.7477,-2.7536,-2.7521,-2.7536,-2.7531,-2.758,-2.7576,-2.7738,-2.7758,-2.7604,-2.7605,-2.7606,0,-2.7481,-2.751,-2.7501,-2.7515,-2.7514,-2.7535,-2.7546,-2.7516,-2.7529,-2.7533,-2.7557,-2.7577,-2.7591,-2.7631,-2.7619,-2.7637,-2.7623,-2.7678,-2.7625,-2.7633,-2.7624,-2.7623,-2.7627,-2.7689,-2.7691,-2.7692,-2.7693,0,-2.7607,-2.7595,-2.7611,-2.7624,-2.7637,-2.7646,-2.7652,-2.7666,-2.7636,-2.7652,-2.7676,-2.7687,-2.7711,-2.7732,-2.7746,-2.7745,-2.7715,-2.7711,-2.7722,-2.7731,-2.7739,-2.7737,-2.7565,-2.7707,-2.7705,-2.7704,-2.7704,-2.7703,-2.7702,-2.7727,-2.7726,-2.7745,-2.7747,-2.7754,-2.7776,-2.7766,-2.7785,-2.7801,-2.7783,-2.7812,-2.7814,-2.783,-2.7833,-2.7856,-2.7833,-2.785,-2.7855,-2.7859,-2.7867,-2.7736,-2.7859,-2.7859,-2.7858,-2.7858,-2.7858,0,-2.7827,-2.7824,-2.7843,-2.7853,-2.7869,-2.7839,-2.7846,-2.7861,-2.7887,-2.7891,-2.7907,-2.7935,-2.7956,-2.7947,-2.7966,-2.7987,-2.7974,-2.7993,-2.7991,-2.7992,-2.7886,-2.7874,-2.8003,-2.8003,-2.8003,-2.8003,-2.8003,-2.8003,-2.7894,-2.7935,-2.7924,-2.7966,-2.7963,-2.7991,-2.7997,-2.8005,-2.8008,-2.8041,-2.8058,-2.8052,-2.8051,-2.807,-2.8089,-2.8086,-2.8095,-2.812,-2.8112,-2.8013,-2.7999,-2.7985,-2.7974,-2.8122,-2.8122,-2.8215,-2.8216,-2.8217]},{"header":{"parameterUnit":"m.s-1","parameterCategory":1,"la1":30.2991,"la2":30.254,"lo1":-89.0895,"lo2":-89.0444,"dy":0.0017,"dx":0.0017,"nx":28,"ny":28,"refTime":"2025-09-14T03:00:00:Z","depth":0,"parameterNumber":3,"parameterNumberName":"V-component_of_WINDS"},"data":[0,0,0,0,0,0,0,0,0,0,0,0,0,0,0,0,0,0,0,0,0,0,0,0,0,0,0,0,0,0,0,0,0,0,0,0,0,0,0,0,0,0,0,0,0,0,0,0,0,0,0,0,0,0,0,0,0,0,2.4063,2.4063,0,2.4043,2.4042,2.4042,2.41,2.4102,2.4104,2.4106,2.4076,2.4073,2.4071,0,0,0,0,0,0,0,0,0,0,0,0,0,2.4145,2.4143,2.4063,2.4063,2.4063,2.4043,2.4042,2.4042,2.41,2.4102,2.4105,2.4107,2.4077,2.4074,2.4071,0,0,0,0,0,0,0,0,0,0,0,0,0,2.4115,2.4142,2.4063,2.4089,2.4092,2.4043,2.4042,2.4042,2.41,2.4102,2.4105,2.4108,2.4078,2.4074,2.407,2.3992,0,0,2.4059,2.4057,0,0,0,0,0,0,0,0,2.4117,2.4112,2.4086,2.4087,2.409,2.4077,2.406,2.4025,2.4099,2.4096,2.4106,2.4109,2.4073,2.407,2.406,2.3991,2.399,2.4058,2.4056,2.4055,2.4054,0,0,0,0,0,0,0,2.4119,2.4113,2.4055,2.4085,2.4088,2.41,2.4099,2.4054,2.4069,2.4097,2.4101,2.4098,2.4075,2.4064,2.406,2.3989,2.4059,2.4055,2.4053,2.4051,2.3854,2.3852,0,0,0,0,0,0,2.4118,2.4115,2.4055,2.4054,2.4111,2.4096,2.4095,2.4078,2.407,2.4072,2.4096,2.4101,2.4069,2.4064,2.4059,2.3966,2.4055,2.4051,2.4049,2.3857,2.3854,2.3851,0,0,0,0,0,0,2.412,2.4113,2.4056,2.4086,2.4079,2.4092,2.4073,2.4076,2.4065,2.407,2.4072,2.4082,2.4071,2.4064,2.4009,2.3966,2.4049,2.4046,2.3861,2.3856,2.3852,2.378,0,0,0,0,0,0,2.4122,2.4113,2.4085,2.4085,2.4078,2.4008,2.407,2.4074,2.406,2.4066,2.4057,2.4058,2.4072,2.4014,2.4005,2.3962,2.4043,2.3865,2.3859,2.3854,2.3786,2.3773,2.3763,0,0,0,0,0,2.4125,2.4063,2.4083,2.4076,2.4043,2.4006,2.4002,2.4022,2.4056,2.4027,2.403,2.4058,2.3973,2.4008,2.3998,2.3953,2.3867,2.3861,2.3854,2.3791,2.3776,2.3763,0,0,0,0,0,0,2.4055,2.4064,2.4086,2.4023,2.4014,2.4016,2.3979,2.4005,2.3983,2.399,2.4013,2.4011,2.395,2.3947,2.3986,2.3877,2.3926,2.3917,2.3881,2.3867,2.3855,2.3855,2.404,0,0,0,0,0,2.4033,2.4004,2.4013,2.3956,2.3951,2.3966,2.3951,2.3968,2.3957,2.3953,2.3952,2.3938,2.3909,2.3888,2.3861,2.3788,2.3785,2.3752,2.374,2.373,2.3721,2.368,2.3665,2.3829,2.3829,2.3829,0,0,2.3985,2.3987,2.3966,2.3942,2.3937,2.3904,2.3962,2.3925,2.39,2.3946,2.3894,2.3893,2.388,2.3815,2.3786,2.381,2.3676,2.3722,2.3714,2.371,2.3672,2.3656,2.3642,2.3824,2.3825,2.3826,0,0,2.3881,2.3881,2.3834,2.3828,2.3821,2.3832,2.3821,2.382,2.3822,2.3771,2.3805,2.3775,2.3723,2.3712,2.37,2.3595,2.3619,2.3585,2.3522,2.3482,2.3469,2.3458,2.3417,2.3403,2.3577,2.3577,2.3577,0,2.3822,2.3777,2.3805,2.3766,2.3754,2.3799,2.3749,2.3742,2.3724,2.3713,2.3742,2.3679,2.3673,2.3605,2.358,2.357,2.3555,2.3584,2.347,2.3458,2.3448,2.341,2.3395,2.3572,2.3573,2.3573,2.3574,0,2.3703,2.3671,2.3634,2.3619,2.3603,2.3559,2.3578,2.3558,2.3577,2.3584,2.3531,2.3527,2.3499,2.3486,2.3503,2.342,2.3435,2.3466,2.3514,2.3428,2.3392,2.3378,2.3566,2.3568,2.3569,2.357,0,0,2.355,2.3555,2.354,2.3534,2.3531,2.3505,2.3463,2.3439,2.342,2.3408,2.337,2.3328,2.3357,2.3343,2.336,2.3325,2.3239,2.3361,2.3361,2.3335,2.3145,2.3119,2.3102,2.3258,2.3255,2.3253,2.3145,0,2.3446,2.3376,2.3401,2.3328,2.3298,2.3342,2.3304,2.3297,2.3303,2.3276,2.3283,2.3251,2.3294,2.3285,2.3254,2.3257,2.3201,2.3265,2.322,2.3218,2.3218,2.3083,2.3055,2.2953,2.3132,2.3129,2.3128,0,2.3314,2.3299,2.3224,2.3226,2.3214,2.3181,2.3161,2.3137,2.3129,2.3136,2.3121,2.3146,2.3102,2.3154,2.3092,2.3136,2.3119,2.3118,2.3115,2.3107,2.3164,2.3069,2.2922,2.2905,2.3107,2.3108,2.311,0,2.3206,2.3168,2.3118,2.3112,2.3114,2.3089,2.3088,2.3083,2.3068,2.305,2.304,2.3016,2.3002,2.2983,2.2999,2.3036,2.2934,2.2988,2.2935,2.2935,2.2908,2.2908,2.2752,2.2904,2.2904,2.2904,2.2905,0,2.3084,2.3036,2.3069,2.3038,2.2984,2.3014,2.296,2.2963,2.2959,2.2928,2.2964,2.2933,2.2959,2.293,2.2943,2.2888,2.2882,2.2884,2.2887,2.2878,2.2878,2.2865,2.287,2.29,2.2901,2.2902,2.2903,0,2.2953,2.2974,2.2922,2.293,2.2931,2.289,2.2896,2.2866,2.2877,2.2836,2.2828,2.2843,2.2811,2.2827,2.2792,2.2801,2.273,2.2745,2.2733,2.2735,2.2681,2.2684,2.2507,2.2484,2.2654,2.2652,2.2651,0,2.2872,2.2836,2.2841,2.2824,2.2822,2.2794,2.2779,2.2808,2.279,2.2779,2.275,2.2722,2.27,2.2645,2.2651,2.2625,2.2636,2.2577,2.2632,2.2624,2.2631,2.2632,2.2627,2.2563,2.2561,2.256,2.2559,0,2.2725,2.2738,2.2717,2.2699,2.2681,2.2668,2.2657,2.2641,2.2669,2.2647,2.2616,2.26,2.2566,2.2536,2.2514,2.251,2.2537,2.2542,2.2528,2.2516,2.251,2.2509,2.2698,2.2544,2.2546,2.2547,2.2548,2.2548,2.2614,2.2584,2.2583,2.2558,2.2554,2.2544,2.2516,2.2525,2.2501,2.2477,2.2496,2.2458,2.2451,2.2424,2.2417,2.2386,2.241,2.239,2.2384,2.2378,2.2369,2.2519,2.2383,2.2383,2.2384,2.2384,2.2384,0,2.2466,2.2469,2.2446,2.2432,2.2412,2.2445,2.2435,2.2415,2.2383,2.2376,2.2355,2.2318,2.229,2.2296,2.2269,2.2243,2.2255,2.2235,2.2235,2.2233,2.2351,2.2365,2.2226,2.2226,2.2226,2.2226,2.2226,2.2226,2.2387,2.2337,2.235,2.2298,2.2301,2.2267,2.2258,2.2248,2.2243,2.2201,2.2179,2.2185,2.2182,2.2156,2.2131,2.2133,2.212,2.2094,2.21,2.221,2.2225,2.224,2.2252,2.2092,2.2092,2.1985,2.1984,2.1983]}]]